Погода в Паниковце

Россия / Липецкая область     52°23′08″N   38°49′10″E
темп.,
°C
ветер,
м/с
пор.,
м/с
влажн.,
%
обл.,
%
осадки,
мм/ч
давл.,
гПа
погр.,
м
13 мая, чт
чт1300:00+8вюв4119294 0.0 1018238
03:00+8вюв41093100 0.0 1018249
06:00+10в5139299 0.0 1016400
09:00+13юв5117699 0.0 1016891
12:00+11юз2592100 1.4 1016190
15:00+14ю478422 6.4 1015543
18:00+16ююв3578100 0.4 1015689
21:00+12вюв22903 0.4 101612
14 мая, пт
пт1400:00+11вюв229290 0.0 101612
03:00+11в2292100 0.1 101714
06:00+12вюв2593100 0.4 1016120
09:00+18юв5878100 0.6 1015464
12:00+22юв71063100 0.0 10151164
15:00+19ю91378100 1.1 1015985
18:00+19юв51180100 0.0 1012364
21:00+18юв5128281 0.1 1011205
15 мая, сб
сб1500:00+16юв4129399 0.0 1010240
03:00+15ююв389494 0.0 1010153
06:00+15ю2494100 0.0 1011109
09:00+20ююз5776100 0.0 1011531
12:00+21ююз68631 0.0 10121028
15:00+22ююз710540 0.0 10121794
18:00+20ююз5965100 0.0 1012516
21:00+16ююз34805 0.1 101354
16 мая, вс
вс1600:00+14юз33841 0.0 101443
03:00+13юз22875 0.0 101513
06:00+14ююз228411 0.0 101552
09:00+19ю246575 0.0 1015495
12:00+22ююз35503 0.0 10152010
15:00+23ююз234571 0.0 10152034
18:00+23юв125994 0.0 1014114
21:00+17ссв336890 0.0 101420
17 мая, пн
пн1700:00+16св377280 0.0 1014125
03:00+14всв4108628 0.0 1014176
06:00+15всв4118847 0.0 1013256
09:00+21вюв566872 0.0 1013382
12:00+25юв685115 0.0 1011917
15:00+27вюв68514 0.0 10111567
18:00+23вюв511624 0.0 1010406
21:00+18вюв412801 0.0 1010219